Location: Newark
(39.9581°N, 97.2014°W)
Time: 10:45:37
(UTC+00:00)

Envisat - Pass Details

Date: 20 January 2020
Orbit: 764 x 766 km, 98.1° (Epoch: 23 February)

Event Time Altitude Azimuth Distance (km) Brightness Sun altitude
Rises 12:39:06 0° 20° (NNE) 3,240 6.3 -12.9°
Reaches altitude 10° 12:41:32 10° 27° (NNE) 2,309 5.6 -12.5°
Maximum altitude 12:46:21 42° 98° (E) 1,082 4.4 -11.6°
Drops below altitude 10° 12:51:08 10° 169° (S) 2,292 5.9 -10.7°
Sets 12:53:32 0° 176° (S) 3,214 6.5 -10.3°
